Home   Weather   Warren   Past weeks

Flag for USA Past Weather in Warren, Michigan, USA — Yesterday and Last 2 Weeks

Now
53 °F

Light rain. Fog.


Feels Like: 51 °F
Forecast: 51 / 66 °F
Wind: 7 mph from East

Location: Detroit City Airport

Current Time: Apr 30, 2017 at 10:35:42 pm

Latest Report: Apr 30, 2017 at 9:53 pm


Visibility: 4 mi

Pressure: 29.83 "Hg

Humidity: 100%

Dew Point: 53 °F

Location of WarrenLocation

Past Weather in Warren — Graph

°F

Warren Temperature Yesterday

Maximum temperature yesterday: 57 °F (at 12:53 am)
Minimum temperature yesterday: 42 °F (at 11:53 pm)
Average temperature yesterday: 47 °F

High & Low Weather Summary for the Past Weeks

 TemperatureHumidityPressure
High78 °F (Apr 26, 4:53 pm)100% (Apr 20, 12:53 pm)30.36 "Hg (Apr 20, 12:53 pm)
Low36 °F (Apr 23, 5:53 am)26% (Apr 17, 1:53 pm)29.49 "Hg (Apr 27, 7:53 am)
Average55 °F70%29.97 "Hg
* Reported Apr 15 8:53 pm — Apr 30 8:53 pm, Warren, Weather by CustomWeather, © 2017

Note: Actual official high and low records may vary slightly from our data, if they occured in-between our weather recording intervals... More about our weather records

Advertising

Warren Weather History for the Previous 24 Hours

Scroll right to see more
 ConditionsComfort  
Time TempWeatherWind HumidityBarometerVisibility
8:53 pm
Sun, Apr 30
52 °FFog.5 mph100%29.84 "Hg5 mi
7:53 pm52 °FLight rain. Fog.8 mph97%29.84 "Hg5 mi
6:53 pm54 °FLight rain. More clouds than sun.6 mph86%29.84 "Hg10 mi
5:53 pm54 °FLight rain. More clouds than sun.6 mph86%29.85 "Hg10 mi
4:53 pm53 °FPartly sunny.9 mph86%29.87 "Hg10 mi
3:53 pm53 °FBroken clouds.12 mph89%29.89 "Hg10 mi
3:10 pm52 °FBroken clouds.12 mph93%29.90 "Hg10 mi
2:53 pm51 °FOvercast.12 mph96%29.91 "Hg10 mi
1:53 pm48 °FLight rain. Overcast.7 mph96%29.94 "Hg10 mi
12:53 pm48 °FLight rain. Overcast.14 mph89%29.97 "Hg10 mi
11:53 am48 °FOvercast.16 mph86%29.99 "Hg10 mi
10:53 am47 °FOvercast.12 mph86%30.02 "Hg10 mi
9:53 am47 °FOvercast.10 mph83%30.03 "Hg10 mi
8:53 am46 °FOvercast.12 mph83%30.04 "Hg10 mi
7:53 am46 °FMostly cloudy.10 mph83%30.06 "Hg10 mi
7:11 am46 °FMostly cloudy.15 mph79%30.05 "Hg10 mi
6:53 am45 °FMore clouds than sun.14 mph86%30.05 "Hg10 mi
5:53 am44 °FOvercast.7 mph93%30.07 "Hg10 mi
5:25 am44 °FMostly cloudy.10 mph89%30.06 "Hg10 mi
4:53 am43 °FPassing clouds.13 mph93%30.06 "Hg10 mi
3:53 am43 °FMostly cloudy.9 mph97%30.12 "Hg10 mi
2:53 am43 °FHeavy rain. Fog.10 mph89%30.13 "Hg3 mi
1:53 am43 °FLight rain. Partly cloudy.13 mph86%30.12 "Hg10 mi
12:53 am44 °FOvercast.17 mph71%30.13 "Hg10 mi
11:53 pm
Sat, Apr 29
42 °FOvercast.14 mph62%30.18 "Hg10 mi
10:53 pm43 °FOvercast.14 mph60%30.26 "Hg10 mi
Weather by CustomWeather, © 2017

See weather overviewHow to use our weather pages